Location: Newark
(47.3833°N, 1.3833°E)
Time: 03:59:40
(UTC+00:00)

N. Korean satellite - Visible Passes

Search period start: 20 September 2019 00:00
Search period end: 30 September 2019 00:00
Orbit: 455 x 509 km, 97.2° (Epoch: 18 September)

Date Brightness Start Highest point End Pass type
(mag) Time Alt. Az. Time Alt. Az. Time Alt. Az.
20 Sep 9.8 05:00:30 10° NE 05:02:42 16° E 05:04:53 10° SE visible
24 Sep 10.0 04:53:22 10° ENE 04:55:06 13° E 04:56:51 10° ESE visible
25 Sep 10.4 18:14:19 10° WSW 18:15:38 12° W 18:16:57 10° WNW visible
27 Sep 9.6 05:10:14 10° NE 05:12:56 21° E 05:15:37 10° SE visible
28 Sep 10.3 04:46:28 10° ENE 04:47:29 11° E 04:48:30 10° ESE visible
29 Sep 10.2 18:06:06 10° SW 18:08:00 14° W 18:09:53 10° WNW visible
